MCBH Kaneohe Bay, HI

12:56 PM HST on February 19, 2017 (GMT -1000)
Kaneohe Bay Marine Corps Air Facility

Weather History for PHNG - May, 2013

Change the Weather History Date:

Sunday, May 12, 2013

  Actual Average Record
Temperature  
Mean Temperature 74 °F -  
Max Temperature 78 °F 76 °F 82 °F (2005)
Min Temperature 71 °F 69 °F 66 °F (1997)
Cooling Degree Days 10    
Growing Degree Days 24 (Base 50)    
Moisture  
Dew Point 70 °F    
Average Humidity 86    
Maximum Humidity 96    
Minimum Humidity 69    
Precipitation  
Precipitation 0.19 in - - ()
Sea Level Pressure  
Sea Level Pressure 30.09 in    
Wind  
Wind Speed 11 mph (ENE)    
Max Wind Speed 16 mph    
Max Gust Speed 25 mph    
Visibility 8 miles    
Events Rain    
Averages and records for this station are not official NWS values.
T = Trace of Precipitation, MM = Missing Value Source: NWS Daily Summary

Daily Weather History Graph

Daily Weather History Graph

Search for Another Location

Airport or City:

Trip Planner

Search our weather history database for the weather conditions in past years. The results will help you decide how hot, cold, wet, or windy it might be!

Date:

Astronomy

May. 12, 2013 Rise Set
Actual Time 5:53 AM HST 7:01 PM HST
Civil Twilight 5:29 AM HST 7:25 PM HST
Nautical Twilight 5:01 AM HST 7:53 PM HST
Astronomical Twilight 4:32 AM HST 8:22 PM HST
Moon 8:02 AM HST (5/12) 9:33 PM HST (5/12)
Length of Visible Light 13h 55m
Length of Day
13h 07m
Waxing Crescent, 8% of the Moon is Illuminated
May 12
Waxing Crescent
May 17
First Quarter
May 24
Full
May 31
Last Quarter
Jun 8
New

Hourly Weather History & Observations

Time (HST) Temp. Dew Point Humidity Pressure Visibility Wind Dir Wind Speed Gust Speed Precip Events Conditions
12:57 AM 72.5 °F 66.9 °F 83% 30.10 in 10.0 mi NE 12.7 mph - N/A   Overcast
1:57 AM 72.5 °F 66.9 °F 83% 30.09 in 10.0 mi NE 9.2 mph - N/A   Overcast
2:57 AM 73.0 °F 66.0 °F 79% 30.07 in 10.0 mi NE 10.4 mph 18.4 mph 0.00 in Rain Light Rain
3:57 AM 73.0 °F 68.0 °F 84% 30.07 in 10.0 mi NE 8.1 mph 16.1 mph 0.00 in Rain Light Rain
4:57 AM 71.4 °F 69.1 °F 92% 30.07 in 10.0 mi NE 8.1 mph - 0.00 in Rain Light Rain
5:04 AM 71.6 °F 69.8 °F 94% 30.09 in 6.2 mi NE 4.6 mph - 0.00 in Rain Light Rain
5:57 AM 72.9 °F 69.1 °F 88% 30.09 in 10.0 mi NE 4.6 mph - 0.00 in Rain Light Rain
6:08 AM 73.4 °F 69.8 °F 88% 30.10 in 6.0 mi ENE 8.1 mph - 0.00 in Rain Light Rain
6:18 AM 73.4 °F 69.8 °F 88% 30.11 in 6.0 mi NNE 10.4 mph - 0.00 in Rain Rain
6:57 AM 72.0 °F 67.1 °F 85% 30.11 in 6.0 mi NNE 8.1 mph - N/A   Overcast
7:57 AM 72.0 °F 67.1 °F 85% 30.13 in 10.0 mi ENE 9.2 mph - N/A Rain Light Rain
8:57 AM 73.6 °F 69.1 °F 86% 30.13 in 3.0 mi NE 8.1 mph - N/A Rain Light Rain
9:08 AM - - N/A% 30.15 in 6.2 mi NE 8.1 mph - 0.00 in Rain Light Rain
9:57 AM 73.4 °F 70.0 °F 89% 30.13 in 3.0 mi ENE 11.5 mph 20.7 mph 0.17 in Rain Rain
10:04 AM - - N/A% 30.14 in 6.2 mi NE 12.7 mph 20.7 mph 0.00 in Rain Rain
10:20 AM 73.4 °F 71.6 °F 94% 30.14 in 5.0 mi NE 12.7 mph 20.7 mph 0.00 in Rain Light Rain
10:57 AM 72.7 °F 71.6 °F 96% 30.12 in 5.0 mi ENE 12.7 mph 21.9 mph 0.01 in   Mostly Cloudy
11:04 AM 75.2 °F 73.4 °F 94% 30.13 in 6.2 mi ENE 15.0 mph 25.3 mph N/A   Overcast
11:57 AM 75.6 °F 73.9 °F 95% 30.11 in 5.0 mi ENE 11.5 mph 24.2 mph N/A   Overcast
12:11 PM 75.2 °F 71.6 °F 89% 30.12 in 6.2 mi ENE 13.8 mph 20.7 mph N/A   Overcast
12:44 PM 75.2 °F 71.6 °F 89% 30.11 in 6.2 mi East 13.8 mph 21.9 mph N/A   Overcast
12:57 PM 75.2 °F 72.0 °F 90% 30.10 in 10.0 mi East 11.5 mph 18.4 mph N/A   Overcast
1:52 PM 75.2 °F 71.6 °F 89% 30.09 in 6.2 mi ENE 10.4 mph 19.6 mph N/A   Overcast
1:57 PM 75.2 °F 71.1 °F 87% 30.08 in 10.0 mi ENE 11.5 mph 19.6 mph N/A   Overcast
2:28 PM 75.2 °F 69.8 °F 83% 30.09 in 6.2 mi ENE 11.5 mph 18.4 mph N/A   Overcast
2:57 PM 77.0 °F 70.0 °F 79% 30.06 in 10.0 mi ENE 10.4 mph 17.3 mph N/A   Overcast
3:28 PM 77.0 °F 69.8 °F 78% 30.08 in 6.0 mi ENE 9.2 mph 17.3 mph N/A   Haze
3:46 PM 77.0 °F 69.8 °F 78% 30.07 in 6.2 mi ENE 10.4 mph 18.4 mph N/A   Overcast
3:57 PM 77.0 °F 70.0 °F 79% 30.06 in 10.0 mi ENE 10.4 mph 16.1 mph N/A   Mostly Cloudy
4:57 PM 78.8 °F 69.1 °F 72% 30.05 in 10.0 mi East 12.7 mph 17.3 mph N/A   Mostly Cloudy
5:57 PM 78.8 °F 68.0 °F 69% 30.05 in 10.0 mi ENE 12.7 mph 19.6 mph N/A   Mostly Cloudy
6:31 PM 77.0 °F 68.0 °F 74% 30.06 in 6.2 mi ENE 11.5 mph 17.3 mph N/A   Overcast
6:57 PM 77.0 °F 68.0 °F 74% 30.05 in 10.0 mi East 12.7 mph 21.9 mph 0.00 in Rain Light Rain
7:08 PM 77.0 °F 71.6 °F 83% 30.07 in 6.2 mi NE 12.7 mph 20.7 mph 0.00 in   Overcast
7:47 PM 77.0 °F 71.6 °F 83% 30.08 in 6.2 mi ENE 9.2 mph - 0.00 in   Overcast
7:57 PM 77.0 °F 71.1 °F 82% 30.07 in 10.0 mi ENE 4.6 mph - 0.00 in Rain Light Rain
8:57 PM 75.2 °F 71.1 °F 87% 30.08 in 10.0 mi East 12.7 mph 17.3 mph 0.00 in   Overcast
9:09 PM 73.4 °F 71.6 °F 94% 30.09 in 6.2 mi ENE 15.0 mph 20.7 mph N/A   Overcast
9:24 PM 73.4 °F 71.6 °F 94% 30.09 in 6.2 mi ENE 12.7 mph 19.6 mph N/A   Overcast
9:33 PM 73.4 °F 71.6 °F 94% 30.09 in 6.2 mi ENE 10.4 mph 19.6 mph N/A   Overcast
9:41 PM 73.4 °F 71.6 °F 94% 30.09 in 6.2 mi East 11.5 mph 18.4 mph N/A   Overcast
9:57 PM 73.4 °F 71.1 °F 92% 30.08 in 10.0 mi ENE 15.0 mph 20.7 mph 0.00 in   Overcast
10:57 PM 73.4 °F 70.0 °F 89% 30.09 in 10.0 mi East 13.8 mph 18.4 mph N/A   Overcast
11:06 PM 73.4 °F 71.6 °F 94% 30.10 in 6.2 mi ENE 9.2 mph 18.4 mph 0.00 in Rain Light Rain
11:57 PM 73.4 °F 72.0 °F 95% 30.07 in 10.0 mi East 16.1 mph 23.0 mph 0.01 in Rain Light Rain